ANDOYA current weather conditions

sailwx.info

Wind from 140 at 12 knots

Air temperature 7.0° C
Visibility: greater than 5.4 NM
Dewpoint 4.0° C

Last reported at 2014-Oct-25 20:50 UTC.
Time now 2014-Oct-25 23:33 UTC

Location: N 69°18' E 016°09'.
View on Google Maps.

See reports from other nearby stations

  
Tides and Currents Weather Stations Pressure Air Temp Water Temp Dewpoint Dewpoint Depression Visibility Wind Speed Wind Dir Waves Ship Positions
date/time (UTC)wind fromknots sea level pressurealtimeterstation pressurevisibilityair tempwater tempwave heightnotes
2014-Oct-25 21:50 140 14 5.4 7.0
2014-Oct-25 20:50 140 12 5.4 7.0
2014-Oct-25 19:50 170 6 5.4 6.0
2014-Oct-25 18:50 160 10 5.4 6.0
2014-Oct-25 17:50 170 8 5.4 5.0
2014-Oct-25 17:20 190 6 5.4 5.0
2014-Oct-25 16:50 190 6 5.4 5.0
2014-Oct-25 16:20 220 5 5.4 6.0
2014-Oct-25 15:50 190 7 5.4 6.0
2014-Oct-25 15:20 190 8 5.4 6.0
2014-Oct-25 14:50 190 6 5.4 6.0 Light rain.
2014-Oct-25 14:20 170 7 5.4 6.0 Light rain.
2014-Oct-25 13:50 190 8 5.4 6.0 Light rain.
2014-Oct-25 13:20 180 8 5.4 6.0 Light rain.
2014-Oct-25 12:50 190 9 5.4 6.0
2014-Oct-25 12:20 180 9 5.4 6.0 Light rain.
2014-Oct-25 11:50 190 7 5.4 6.0 Light rain.
2014-Oct-25 11:20 190 6 5.4 6.0 Light rain.
2014-Oct-25 10:50 200 6 5.4 6.0 Light rain.
2014-Oct-25 10:20 160 8 5.4 6.0 Light rain.
2014-Oct-25 09:50 150 8 5.4 6.0 Light rain.
2014-Oct-25 09:20 160 10 5.4 6.0 Light rain.
2014-Oct-25 08:50 170 10 5.4 6.0 Light rain.
2014-Oct-25 08:20 180 8 5.4 7.0 Light rain.
2014-Oct-25 07:50 180 10 5.4 7.0 Light rain.
2014-Oct-25 07:20 190 7 5.4 7.0
2014-Oct-25 06:50 170 9 5.4 7.0
2014-Oct-25 06:20 180 10 5.4 7.0
2014-Oct-25 05:50 180 10 5.4 7.0
2014-Oct-25 05:20 180 5 5.4 7.0
2014-Oct-25 04:50 190 6 5.4 7.0
2014-Oct-25 04:20 180 9 5.4 7.0
2014-Oct-25 03:50 170 10 5.4 7.0
2014-Oct-25 02:50 180 8 5.4 6.0
2014-Oct-24 23:50 200 11 5.4 8.0
2014-Oct-24 21:50 190 11 5.4 7.0
2014-Oct-24 20:50 190 12 5.4 8.0 Light rain showers.
2014-Oct-24 19:50 180 15 5.4 8.0
2014-Oct-24 18:50 180 14 5.4 8.0
2014-Oct-24 17:50 180 16 5.4 9.0
2014-Oct-24 17:20 180 11 5.4 8.0
2014-Oct-24 16:50 180 12 5.4 7.0
2014-Oct-24 16:20 180 17 5.4 8.0
2014-Oct-24 15:50 180 17 5.4 8.0
2014-Oct-24 15:20 160 14 5.4 8.0
2014-Oct-24 14:50 170 14 5.4 8.0
2014-Oct-24 14:20 170 17 5.4 8.0
2014-Oct-24 13:50 150 15 5.4 8.0 Light rain showers.
2014-Oct-24 13:20 150 19 5.4 8.0
2014-Oct-24 12:50 150 20 5.4 8.0
2014-Oct-24 12:20 150 17 5.4 8.0
2014-Oct-24 11:50 150 19 gusting 30 5.4 8.0 Light rain showers.
2014-Oct-24 11:20 150 20 5.4 8.0
2014-Oct-24 10:50 140 20 5.4 7.0
2014-Oct-24 10:20 140 20 5.4 7.0
2014-Oct-24 09:50 140 20 5.4 7.0
2014-Oct-24 09:20 140 23 5.4 6.0
2014-Oct-24 08:50 140 23 5.4 6.0
2014-Oct-24 08:20 140 20 5.4 6.0
2014-Oct-24 07:50 140 20 5.4 6.0
2014-Oct-24 07:20 140 19 5.4 6.0
2014-Oct-24 06:50 140 17 5.4 6.0 Showers in the vicinity.
2014-Oct-24 06:20 140 17 5.4 6.0 Light rain showers.
2014-Oct-24 05:50 140 18 5.4 6.0 Light rain showers.
2014-Oct-24 05:20 140 18 5.4 6.0
2014-Oct-24 04:50 140 19 5.4 7.0
2014-Oct-24 04:20 140 18 5.4 7.0
2014-Oct-24 03:50 140 18 5.4 6.0
2014-Oct-24 03:20 140 17 5.4 7.0
2014-Oct-24 02:50 150 19 5.4 7.0
2014-Oct-24 01:50 150 18 5.4 7.0
2014-Oct-24 00:50 170 20 5.4 7.0
2014-Oct-23 23:50 170 19 5.4 6.0